Falls City, NE

12:38 PM CDT on October 18, 2017 (GMT -0500)
Brenner

Weather History for KFNB - March, 2014

Change the Weather History Date:

Thursday, March 6, 2014

  Actual Average Record
Temperature  
Mean Temperature 30 °F -  
Max Temperature 45 °F 49 °F 79 °F (2017)
Min Temperature 16 °F 26 °F -3 °F (1960)
Degree Days  
Heating Degree Days 34    
Moisture  
Dew Point 23 °F    
Average Humidity 87    
Maximum Humidity 100    
Minimum Humidity 65    
Precipitation  
Precipitation 0.00 in - - ()
Sea Level Pressure  
Sea Level Pressure 30.18 in    
Wind  
Wind Speed 3 mph (South)    
Max Wind Speed 16 mph    
Max Gust Speed 21 mph    
Visibility 3 miles    
Events Fog    
Averages and records for this station are not official NWS values.
T = Trace of Precipitation, MM = Missing Value Source: NWS Daily Summary

Daily Weather History Graph

Daily Weather History Graph

Search for Another Location

Airport or City:

Trip Planner

Search our weather history database for the weather conditions in past years. The results will help you decide how hot, cold, wet, or windy it might be!

Date:

Astronomy

Mar. 06, 2014 Rise Set
Actual Time 6:48 AM CST 6:19 PM CST
Civil Twilight 6:20 AM CST 6:46 PM CST
Nautical Twilight 5:49 AM CST 7:18 PM CST
Astronomical Twilight 5:18 AM CST 7:49 PM CST
Moon 9:56 AM CST (3/6) No Moon Set
Length of Visible Light 12h 25m
Length of Day
11h 31m
Waxing Crescent, 32% of the Moon is Illuminated
Mar 6
Waxing Crescent
Mar 8
First Quarter
Mar 16
Full
Mar 23
Last Quarter
Mar 30
New

Hourly Weather History & Observations

Time (CST) Temp. Windchill Dew Point Humidity Pressure Visibility Wind Dir Wind Speed Gust Speed Precip Events Conditions
12:21 AM 19.0 °F - 18.0 °F 96% 30.28 in 2.5 mi Calm Calm - N/A   Clear
12:53 AM 19.9 °F - 18.0 °F 92% 30.32 in 2.0 mi Calm Calm - N/A   Clear
1:20 AM 18.0 °F - 17.1 °F 96% 30.29 in 1.5 mi Calm Calm - N/A   Partly Cloudy
1:53 AM 18.0 °F - 16.0 °F 92% 30.32 in 1.5 mi Calm Calm - N/A   Partly Cloudy
2:06 AM 18.0 °F - 15.1 °F 88% 30.27 in 0.8 mi Calm Calm - N/A   Scattered Clouds
2:17 AM 19.0 °F - 16.0 °F 88% 30.26 in 1.0 mi Calm Calm - N/A   Mist
2:24 AM 19.0 °F - 16.0 °F 88% 30.26 in 0.5 mi Calm Calm - N/A Fog Light Freezing Fog
2:34 AM 19.0 °F - 16.0 °F 88% 30.26 in 0.2 mi Calm Calm - N/A Fog Light Freezing Fog
2:53 AM 18.0 °F - 16.0 °F 92% 30.30 in 0.2 mi Calm Calm - N/A Fog Light Freezing Fog
3:13 AM 17.1 °F 11.7 °F 15.1 °F 92% 30.26 in 0.2 mi WNW 3.5 mph - N/A Fog Light Freezing Fog
3:38 AM 16.0 °F 10.4 °F 12.9 °F 88% 30.26 in 1.0 mi NW 3.5 mph - N/A   Overcast
3:53 AM 17.1 °F 11.7 °F 14.0 °F 88% 30.30 in 1.8 mi NW 3.5 mph - N/A   Overcast
4:00 AM 17.1 °F 11.7 °F 15.1 °F 92% 30.26 in 2.0 mi NW 3.5 mph - N/A   Overcast
4:18 AM 18.0 °F - 15.1 °F 88% 30.24 in 2.5 mi Calm Calm - N/A   Overcast
4:28 AM 18.0 °F - 15.1 °F 88% 30.24 in 3.0 mi Calm Calm - N/A   Overcast
4:53 AM 19.0 °F - 16.0 °F 88% 30.28 in 3.0 mi Calm Calm - N/A   Overcast
5:53 AM 19.9 °F - 17.1 °F 89% 30.29 in 2.5 mi Calm Calm - N/A   Overcast
6:06 AM 19.9 °F - 18.0 °F 92% 30.24 in 3.0 mi Calm Calm - N/A   Overcast
6:19 AM 19.0 °F 12.3 °F 17.1 °F 92% 30.23 in 2.5 mi ESE 4.6 mph - N/A   Overcast
6:37 AM 19.9 °F 14.9 °F 17.1 °F 89% 30.23 in 2.5 mi ESE 3.5 mph - N/A   Overcast
6:53 AM 19.9 °F - 18.0 °F 92% 30.26 in 2.0 mi Calm Calm - N/A   Overcast
7:00 AM 19.9 °F - 19.0 °F 96% 30.23 in 1.5 mi Calm Calm - N/A   Overcast
7:39 AM 21.0 °F 14.6 °F 19.9 °F 96% 30.20 in 1.2 mi SSE 4.6 mph - N/A   Overcast
7:53 AM 21.9 °F 15.7 °F 19.9 °F 92% 30.24 in 0.8 mi SSE 4.6 mph - N/A   Overcast
8:12 AM 23.0 °F 14.7 °F 21.0 °F 92% 30.20 in 0.2 mi South 6.9 mph - N/A Fog Light Freezing Fog
8:53 AM 24.1 °F - 23.0 °F 96% 30.26 in 0.2 mi Calm Calm - N/A Fog Light Freezing Fog
9:02 AM 24.1 °F - 24.1 °F 100% 30.22 in 0.5 mi Calm Calm - N/A Fog Light Freezing Fog
9:53 AM 25.0 °F 19.3 °F 24.1 °F 96% 30.24 in 1.0 mi South 4.6 mph - N/A   Overcast
10:34 AM 27.0 °F 19.5 °F 25.0 °F 92% 30.22 in 2.0 mi South 6.9 mph - N/A   Overcast
10:53 AM 27.0 °F 18.0 °F 25.0 °F 92% 30.24 in 2.0 mi South 9.2 mph - N/A   Overcast
11:19 AM 28.0 °F 18.6 °F 25.0 °F 88% 30.18 in 3.0 mi South 10.4 mph - N/A   Overcast
11:53 AM 28.9 °F 18.6 °F 26.1 °F 89% 30.22 in 3.0 mi South 12.7 mph - N/A   Overcast
12:53 PM 32.0 °F 23.6 °F 28.0 °F 85% 30.17 in 3.0 mi South 10.4 mph - N/A   Overcast
1:23 PM 37.0 °F 27.7 °F 30.9 °F 79% 30.11 in 4.0 mi South 16.1 mph 20.7 mph N/A   Haze
1:53 PM 39.0 °F 31.0 °F 32.0 °F 76% 30.12 in 4.0 mi South 13.8 mph - N/A   Haze
2:05 PM 39.9 °F 32.9 °F 33.1 °F 77% 30.07 in 5.0 mi South 11.5 mph - N/A   Haze
2:53 PM 43.0 °F 36.8 °F 35.1 °F 74% 30.07 in 6.0 mi South 11.5 mph - N/A   Haze
3:53 PM 44.1 °F 36.8 °F 34.0 °F 68% 30.03 in 8.0 mi South 16.1 mph - N/A   Clear
4:53 PM 45.0 °F 39.7 °F 34.0 °F 65% 30.01 in 7.0 mi South 10.4 mph - N/A   Clear
5:53 PM 43.0 °F 36.4 °F 34.0 °F 71% 29.98 in 8.0 mi South 12.7 mph - N/A   Clear
6:53 PM 39.9 °F 33.4 °F 32.0 °F 73% 29.96 in 8.0 mi SSE 10.4 mph - N/A   Clear
7:53 PM 37.9 °F 32.1 °F 32.0 °F 79% 29.96 in 7.0 mi South 8.1 mph - N/A   Clear
8:53 PM 37.0 °F 30.4 °F 30.9 °F 79% 29.94 in 6.0 mi SSE 9.2 mph - N/A   Haze
9:53 PM 37.0 °F 29.8 °F 30.9 °F 79% 29.94 in 6.0 mi South 10.4 mph - N/A   Haze
10:53 PM 37.9 °F 30.0 °F 30.9 °F 76% 29.92 in 7.0 mi South 12.7 mph - N/A   Clear
11:53 PM 37.0 °F 29.3 °F 30.9 °F 79% 29.91 in 7.0 mi South 11.5 mph - N/A   Clear